Weather History for Dublin, Ireland

Change the Weather History Date:

Monday, March 4, 2013

  Actual Average Record
Temperature  
Mean Temperature 38 °F -  
Max Temperature 44 °F 50 °F 55 °F (2003)
Min Temperature 30 °F 38 °F 19 °F (2001)
Degree Days  
Heating Degree Days 27    
Moisture  
Dew Point 33 °F    
Average Humidity 76    
Maximum Humidity 100    
Minimum Humidity 54    
Precipitation  
Precipitation 0.00 in 0.07 in - ()
Sea Level Pressure  
Sea Level Pressure 29.87 in    
Wind  
Wind Speed 8 mph ()    
Max Wind Speed 14 mph    
Max Gust Speed -    
Visibility 6.3 miles    
Events      
Averages and records for this station are not official NWS values.
T = Trace of Precipitation, MM = Missing Value Source: Averaged Metar Reports

Daily Weather History Graph

Daily Weather History Graph

Search for Another Location

Airport:

Trip Planner

Search our weather history database for the weather conditions in past years. The results will help you decide how hot, cold, wet, or windy it might be!

Date:

Astronomy

Mar. 04, 2013 Rise Set
Actual Time 7:05 AM GMT 6:08 PM GMT
Civil Twilight 6:30 AM GMT 6:43 PM GMT
Nautical Twilight 5:50 AM GMT 7:24 PM GMT
Astronomical Twilight 5:09 AM GMT 8:05 PM GMT
Moon 1:35 AM GMT (3/4) 10:01 AM GMT (3/4)
Length of Visible Light 12h 13m
Length of Day
11h 03m
Waning Gibbous, 55% of the Moon is Illuminated
Mar 4
Waning Gibbous
Mar 4
Last Quarter
Mar 11
New
Mar 19
First Quarter
Mar 27
Full

Hourly Weather History & Observations

Time (GMT) Temp. Windchill Dew Point Humidity Pressure Visibility Wind Dir Wind Speed Gust Speed Precip Events Conditions
12:00 AM 40 °F - 33 °F 67% 30.06 in 10 mi SSE 6.7 mph - -   Mostly Cloudy
12:00 AM 41.0 °F 36.4 °F 33.8 °F 76% 30.04 in 6.2 mi SSE 6.9 mph - N/A   Mostly Cloudy
12:30 AM 39.2 °F 35.0 °F 33.8 °F 81% 30.04 in 6.2 mi SSE 5.8 mph - N/A   Mostly Cloudy
1:00 AM 39.2 °F 33.6 °F 32.0 °F 75% 30.04 in 6.2 mi SSE 8.1 mph - N/A   Mostly Cloudy
1:30 AM 39.2 °F 33.0 °F 32.0 °F 75% 30.01 in 6.2 mi SSE 9.2 mph - N/A   Mostly Cloudy
2:00 AM 39.2 °F 33.0 °F 32.0 °F 75% 30.01 in 6.2 mi SSE 9.2 mph - N/A   Mostly Cloudy
2:30 AM 39.2 °F 33.0 °F 32.0 °F 75% 30.01 in 6.2 mi SSE 9.2 mph - N/A   Mostly Cloudy
3:00 AM 39.2 °F 33.6 °F 33.8 °F 81% 29.98 in 6.2 mi SE 8.1 mph - N/A   Mostly Cloudy
3:30 AM 39.2 °F 32.0 °F 32.0 °F 75% 29.98 in 6.2 mi SE 11.5 mph - N/A   Mostly Cloudy
4:00 AM 41.0 °F 34.7 °F 33.8 °F 76% 29.95 in 6.2 mi SE 10.4 mph - N/A   Mostly Cloudy
4:30 AM 41.0 °F 35.8 °F 33.8 °F 76% 29.95 in 6.2 mi SE 8.1 mph - N/A   Mostly Cloudy
5:00 AM 41.0 °F 35.8 °F 33.8 °F 76% 29.95 in 6.2 mi SE 8.1 mph - N/A   Mostly Cloudy
5:30 AM 41.0 °F 34.3 °F 33.8 °F 76% 29.95 in 6.2 mi SE 11.5 mph - N/A   Mostly Cloudy
6:00 AM 41 °F - 32 °F 60% 29.95 in 12 mi SE 13.4 mph - -   Mostly Cloudy
6:00 AM 41.0 °F 34.3 °F 32.0 °F 70% 29.92 in 6.2 mi SE 11.5 mph - N/A   Mostly Cloudy
6:30 AM 41.0 °F 33.9 °F 32.0 °F 70% 29.92 in 6.2 mi SE 12.7 mph - N/A   Mostly Cloudy
7:00 AM 41.0 °F 33.5 °F 33.8 °F 76% 29.92 in 6.2 mi ESE 13.8 mph - N/A   Mostly Cloudy
7:30 AM 41.0 °F 34.3 °F 33.8 °F 76% 29.92 in 6.2 mi SE 11.5 mph - N/A   Mostly Cloudy
8:00 AM 41.0 °F 34.7 °F 33.8 °F 76% 29.92 in 6.2 mi SE 10.4 mph - N/A   Mostly Cloudy
8:30 AM 41.0 °F 33.9 °F 33.8 °F 76% 29.92 in 6.2 mi SE 12.7 mph - N/A   Mostly Cloudy
9:00 AM 41.0 °F 34.7 °F 33.8 °F 76% 29.89 in 6.2 mi SE 10.4 mph - N/A   Mostly Cloudy
9:30 AM 41.0 °F 34.7 °F 33.8 °F 76% 29.89 in 6.2 mi SE 10.4 mph - N/A   Mostly Cloudy
10:00 AM 41.0 °F 34.3 °F 33.8 °F 76% 29.89 in 6.2 mi SE 11.5 mph - N/A   Mostly Cloudy
10:30 AM 41.0 °F 33.9 °F 32.0 °F 70% 29.89 in 6.2 mi SSE 12.7 mph - N/A   Mostly Cloudy
11:00 AM 41.0 °F 34.7 °F 32.0 °F 70% 29.89 in 6.2 mi SSE 10.4 mph - N/A   Mostly Cloudy
11:30 AM 44.6 °F 38.1 °F 32.0 °F 61% 29.86 in 6.2 mi SE 13.8 mph - N/A   Mostly Cloudy
12:00 PM 44 °F - 33 °F 54% 29.88 in 16 mi SE 11.2 mph - -   Partly Cloudy
12:00 PM 44.6 °F 38.4 °F 33.8 °F 66% 29.86 in 6.2 mi SE 12.7 mph - N/A   Mostly Cloudy
12:30 PM 44.6 °F 38.4 °F 32.0 °F 61% 29.86 in 6.2 mi SE 12.7 mph - N/A   Mostly Cloudy
1:00 PM 44.6 °F 39.2 °F 32.0 °F 61% 29.83 in 6.2 mi SSE 10.4 mph - N/A   Mostly Cloudy
1:30 PM 44.6 °F 39.2 °F 33.8 °F 66% 29.83 in 6.2 mi SE 10.4 mph - N/A   Mostly Cloudy
2:00 PM 42.8 °F 38.0 °F 33.8 °F 70% 29.80 in 6.2 mi SE 8.1 mph - N/A   Mostly Cloudy
2:30 PM 42.8 °F 37.0 °F 33.8 °F 70% 29.80 in 6.2 mi SE 10.4 mph - N/A   Mostly Cloudy
3:00 PM 42.8 °F 37.0 °F 33.8 °F 70% 29.80 in 6.2 mi SE 10.4 mph - N/A   Mostly Cloudy
3:30 PM 42.8 °F 36.6 °F 33.8 °F 70% 29.77 in 6.2 mi SE 11.5 mph - N/A   Mostly Cloudy
4:00 PM 41.0 °F 34.3 °F 33.8 °F 76% 29.77 in 6.2 mi SE 11.5 mph - N/A   Mostly Cloudy
4:30 PM 41.0 °F 35.2 °F 33.8 °F 76% 29.77 in 6.2 mi SE 9.2 mph - N/A   Mostly Cloudy
5:00 PM 41.0 °F 35.8 °F 33.8 °F 76% 29.77 in 6.2 mi SE 8.1 mph - N/A   Mostly Cloudy
5:30 PM 41.0 °F 36.4 °F 33.8 °F 76% 29.77 in 6.2 mi SE 6.9 mph - N/A   Mostly Cloudy
6:00 PM 41 °F - 34 °F 66% 29.79 in 5 mi SE 6.7 mph - -   Mist
6:00 PM 41.0 °F 37.1 °F 33.8 °F 76% 29.77 in 5.0 mi SE 5.8 mph - N/A   Mostly Cloudy
6:30 PM 39.2 °F 35.0 °F 33.8 °F 81% 29.77 in 5.0 mi SE 5.8 mph - N/A   Mostly Cloudy
7:00 PM 39.2 °F 34.2 °F 33.8 °F 81% 29.77 in 5.0 mi SSE 6.9 mph - N/A   Mostly Cloudy
7:30 PM 37.4 °F 33.8 °F 33.8 °F 87% 29.77 in 6.2 mi SSE 4.6 mph - N/A   Scattered Clouds
8:00 PM 35.6 °F 32.8 °F 32.0 °F 87% 29.77 in 5.6 mi ESE 3.5 mph - N/A   Scattered Clouds
8:30 PM 33.8 °F 29.6 °F 30.2 °F 87% 29.74 in 5.6 mi ESE 4.6 mph - N/A   Scattered Clouds
9:00 PM 32.0 °F 27.5 °F 30.2 °F 93% 29.74 in 5.6 mi ESE 4.6 mph - N/A   Scattered Clouds
9:30 PM 32.0 °F 27.5 °F 30.2 °F 93% 29.74 in 5.6 mi ESE 4.6 mph - N/A   Scattered Clouds
10:00 PM 32.0 °F 26.4 °F 30.2 °F 93% 29.74 in 5.0 mi ESE 5.8 mph - N/A   Partly Cloudy
10:30 PM 32.0 °F 25.6 °F 30.2 °F 93% 29.74 in 5.0 mi ESE 6.9 mph - N/A   Partly Cloudy
11:00 PM 32.0 °F 26.4 °F 30.2 °F 93% 29.71 in 5.0 mi ESE 5.8 mph - N/A   Partly Cloudy
11:30 PM 30.2 °F 24.3 °F 30.2 °F 100% 29.71 in 5.0 mi ESE 5.8 mph - N/A   Partly Cloudy